Location: Clanezzo
(45.7500°N, 9.6000°E)
Time: 04:14:11
(UTC+00:00)

Cosmos 1812 - Pass Details

Date: 12 May 2021
Orbit: 514 x 521 km, 82.5° (Epoch: 18 June)

Event Time Altitude Azimuth Distance (km) Brightness Sun altitude
Exits shadow 20:32:08 18° 190° (S) 1,346 4.4 -15.7°
Maximum altitude 20:34:59 84° 276° (W) 531 2.7 -16.0°
Drops below altitude 10° 20:38:53 10° 8° (N) 1,769 6.0 -16.5°
Sets 20:41:02 0° 9° (N) 2,662 7.0 -16.7°
